User: anonymous   Login
Location: Peebles
(55.6412°N, 3.1714°W)
Time: 07:50:21
(UTC+00:00)
Language:

Meteor 2-10 - Orbit

View from above orbital plane
View from above orbital plane
View from above satellite
View from above satellite

Ground track
Ground track

The orbit data is extracted from the following two-line orbital elements,

1 14452U 83109A   21336.80166926  .00000058  00000-0  18271-4 0  9996
2 14452  81.1627 231.2518 0090371 333.8843  25.7791 14.26548173981074
Epoch (UTC): 02 December 2021 19:14:24
Eccentricity: 0.0090371
inclination: 81.1627°
perigee height: 738 km
apogee height: 868 km
right ascension of ascending node: 231.2518°
argument of perigee: 333.8843°
revolutions per day: 14.26548173
mean anomaly at epoch: 25.7791°
orbit number at epoch: 98107

The dashed part of the orbit path shows where the satellite is in the earth's shadow,  

DLR